#timestamp,LO_Frequency,Hit,StdDev 
1552280415.2,286047001.2,N
1552280435.0,286046998.3,N
1552280435.9,286046998.3,N
1552280455.8,286046996.8,N
1552280475.6,286046997.8,N
1552280495.4,286046997.4,N
1552280515.3,286046999.1,N
1552280535.1,286047001.1,N
1552280555.8,286047000.2,N
1552280575.7,286046999.7,N
1552280595.5,286047002.0,N
1552280615.4,286047004.9,N
1552280635.2,286047008.9,N
1552280655.0,286047008.5,N
1552280655.9,286047008.5,N
1552280675.8,286047010.4,N
1552280695.6,286047008.1,N
1552280715.4,286047010.1,N
1552280735.3,286047009.6,N
1552280755.1,286047010.0,N
1552280775.9,286047010.7,N
1552280795.7,286047009.8,N
1552280815.5,286047009.8,N
1552280835.4,286047009.4,N
1552280855.2,286047013.5,N
1552280875.0,286047011.1,N
1552280875.9,286047011.1,N
1552280895.8,286047013.9,N
1552280915.6,286047012.7,N
1552280935.5,286047013.5,N
1552280955.3,286047011.0,N
1552280975.1,286047011.8,N
1552280995.9,286047010.4,N
1552281015.7,286047008.2,N
1552281035.5,286047010.8,N
1552281055.4,286047009.6,N
1552281075.2,286047009.5,N
1552281095.1,286047013.0,Y
1552281096.0,286047013.0,P
1552281115.8,286047004.8,N
1552281135.6,286047003.6,N
1552281155.5,286047002.7,N
1552281175.3,286046999.8,N
1552281195.2,286046998.2,N
1552281215.9,286046999.4,N
1552281235.7,286047001.1,N
1552281255.6,286047002.0,N
1552281275.4,286047000.8,N
1552281295.2,286046996.5,N
1552281315.1,286046997.7,N
1552281316.0,286046997.7,N
1552281335.8,286046995.9,N
1552281355.7,286046994.7,N
1552281375.5,286046992.4,N
1552281395.3,286046991.8,N
1552281415.2,286046994.5,N
1552281435.0,286046991.8,N
1552281435.9,286046991.8,N
1552281455.7,286046994.5,N
1552281475.6,286046993.3,N
1552281495.4,286046995.6,N
1552281515.3,286046995.0,N
1552281535.1,286046999.1,N
1552281555.8,286047001.1,N
1552281575.7,286047000.5,N
1552281595.5,286047000.7,N
1552281615.4,286046999.0,N
1552281635.2,286047000.9,N
1552281655.0,286047004.3,N
1552281655.9,286047004.3,N
1552281675.8,286047003.8,N
1552281695.6,286047003.6,N
1552281715.4,286047005.8,N
1552281735.3,286047005.7,N
1552281755.1,286047007.1,N
1552281775.9,286047006.8,N
1552281795.7,286047006.1,N
1552281815.5,286047006.6,N
1552281835.4,286047003.0,N
1552281855.2,286046999.8,N
1552281875.0,286047000.6,N
1552281875.9,286047000.6,N
1552281895.8,286046999.5,N
1552281915.6,286046999.1,N
1552281935.5,286046994.9,N
1552281955.3,286046993.3,N
1552281975.1,286046994.2,N
1552281995.9,286046996.0,N
1552282015.7,286046993.3,N
1552282035.6,286046996.6,N
1552282055.4,286047001.1,N
1552282075.2,286047000.0,N
1552282095.1,286047000.1,N
1552282096.0,286047000.1,N
1552282115.8,286046999.7,N
1552282135.6,286047000.3,N
1552282155.5,286046999.9,N
1552282175.3,286047000.1,N
1552282195.2,286047002.2,N
1552282215.9,286046999.7,N
1552282235.7,286047004.4,N
1552282255.6,286046999.8,N
1552282275.4,286047000.0,N
1552282295.2,286046998.8,N
1552282315.1,286046998.7,N
1552282316.0,286046998.7,N
1552282335.8,286046999.3,N
1552282355.7,286046998.2,N
1552282375.5,286046998.2,N
1552282395.3,286046998.5,N
1552282415.2,286047000.8,N
1552282435.0,286046998.1,N
1552282435.9,286046998.1,N
1552282455.8,286047002.2,N
1552282475.6,286047001.3,N
1552282495.4,286047001.3,N
1552282515.3,286047001.6,N
1552282535.1,286047000.0,N
1552282555.8,286047001.1,N
1552282575.7,286047000.8,N
1552282595.5,286047000.0,N
1552282615.4,286047000.7,N
1552282635.2,286047000.6,N
1552282655.0,286046999.8,N
1552282655.9,286046999.8,N
1552282675.8,286047002.0,N
1552282695.6,286046999.7,N
1552282715.5,286047003.9,N
1552282735.3,286047000.4,N
1552282755.1,286046998.8,N
1552282775.9,286046997.0,N
1552282795.7,286046997.5,N
1552282815.6,286046996.1,N
1552282835.4,286046993.8,Y
1552282855.2,286046995.7,P
1552282875.1,286046995.4,N
1552282876.0,286046995.4,N
1552282895.8,286046998.4,N
1552282915.6,286047001.1,N
1552282935.5,286047001.1,N
1552282955.3,286047000.0,N
1552282975.2,286047000.1,N
1552282995.9,286046999.8,N
1552283015.7,286047002.5,N
1552283035.6,286047005.9,N
1552283055.4,286047007.1,N
1552283075.2,286047006.2,N
1552283095.1,286047007.3,N
1552283096.0,286047007.3,N
1552283115.8,286047007.3,N
1552283135.7,286047006.6,N
1552283155.5,286047007.6,N
1552283175.3,286047007.5,N
1552283195.2,286047003.4,N
1552283215.0,286047003.0,N
1552283215.9,286047003.0,N
1552283235.8,286047003.2,N
1552283255.6,286047003.4,N
1552283275.4,286047006.7,N
1552283295.3,286047006.7,N
1552283315.1,286047004.9,N
1552283335.8,286047003.5,N
1552283355.7,286046999.7,N
1552283375.5,286047002.3,N
1552283395.4,286047002.6,N
1552283415.2,286047000.6,N
1552283435.0,286046998.4,N
1552283435.9,286046998.4,N
1552283455.8,286046996.9,N
1552283475.6,286046995.0,N
1552283495.4,286046996.2,N
1552283515.3,286046995.8,N
1552283535.1,286046998.0,N
1552283555.9,286046997.6,N
1552283575.7,286046996.1,N
1552283595.5,286046993.7,N
1552283615.4,286046992.1,N
1552283635.2,286046990.1,N
1552283655.0,286046991.4,N
1552283656.0,286046991.4,N
1552283675.8,286046989.5,N
1552283695.6,286046987.3,N
1552283715.5,286046986.0,N
1552283735.3,286046986.3,N
1552283755.1,286046987.6,N
1552283775.9,286046989.4,N
1552283795.7,286046990.8,N
1552283815.6,286046990.5,N
1552283835.4,286046990.8,N
1552283855.2,286046989.3,N
1552283875.1,286046988.7,N
1552283876.0,286046988.7,N
1552283895.8,286046988.4,N
1552283915.6,286046989.6,N
1552283935.5,286046991.2,N
1552283955.3,286046988.8,N
1552283975.2,286046989.6,N
1552283995.9,286046985.3,Y
